This is the latest recevied weather packets stored in our database for station/object N6RDS-8. If no packets are shown the sender has not sent any weather packets the latest 10 day(s).
| Time | Temp. | Humidity | Pressure | Rain* | Wind** | Luminosity | Snow |
|---|---|---|---|---|---|---|---|
| 1777583898 | 25.56° C | 32% | 1013 hPa | 0 mm | - | 177 W/m² | - |
| 1777583594 | 26.11° C | 31% | 1013.2 hPa | 0 mm | - | 225 W/m² | - |
| 1777583293 | 25.56° C | 31% | 1013 hPa | 0 mm | - | 302 W/m² | - |
| 1777582988 | 25.56° C | 31% | 1013.3 hPa | 0 mm | - | 229 W/m² | - |
| 1777582686 | 25.56° C | 31% | 1013.5 hPa | 0 mm | - | 240 W/m² | - |
| 1777582386 | 26.11° C | 30% | 1013.2 hPa | 0 mm | - | 221 W/m² | - |
| 1777582084 | 25.56° C | 31% | 1013.5 hPa | 0 mm | - | 294 W/m² | - |
| 1777581779 | 25.56° C | 31% | 1013.7 hPa | 0 mm | - | 217 W/m² | - |
| 1777581478 | 26.67° C | 30% | 1013.6 hPa | 0 mm | - | 196 W/m² | - |
| 1777581173 | 26.67° C | 30% | 1013.9 hPa | 0 mm | - | 264 W/m² | - |
| 1777580868 | 26.67° C | 29% | 1013.9 hPa | 0 mm | - | 242 W/m² | - |
| 1777580563 | 27.22° C | 29% | 1014 hPa | 0 mm | - | 377 W/m² | - |
| 1777580259 | 27.22° C | 29% | 1013.9 hPa | 0 mm | - | 858 W/m² | - |
| 1777579956 | 26.67° C | 29% | 1014 hPa | 0 mm | - | 778 W/m² | - |
| 1777579651 | 26.67° C | 28% | 1014.1 hPa | 0 mm | - | 460 W/m² | - |
| 1777579350 | 26.67° C | 28% | 1014.2 hPa | 0 mm | - | 793 W/m² | - |
| 1777579045 | 26.67° C | 28% | 1014.2 hPa | 0 mm | - | 455 W/m² | - |
| 1777578740 | 26.67° C | 27% | 1014.5 hPa | 0 mm | - | 438 W/m² | - |
| 1777578435 | 26.67° C | 27% | 1014.5 hPa | 0 mm | - | 409 W/m² | - |
| 1777578130 | 26.67° C | 26% | 1014.6 hPa | 0 mm | - | 514 W/m² | - |
| 1777577826 | 26.67° C | 27% | 1014.6 hPa | 0 mm | - | 685 W/m² | - |
| 1777577522 | 25.56° C | 26% | 1014.8 hPa | 0 mm | - | 844 W/m² | - |
| 1777577219 | 25.56° C | 27% | 1014.9 hPa | 0 mm | - | 626 W/m² | - |
| 1777576915 | 25.56° C | 26% | 1014.9 hPa | 0 mm | - | 645 W/m² | - |
| 1777576611 | 25.56° C | 26% | 1015 hPa | 0 mm | - | 646 W/m² | - |
* Rain latest hour (hover to see other rain measurements)
** Current wind speed in m/s (hover to see current wind gust speed)